Wooster, OH

10:08 AM EST on December 05, 2016 (GMT -0500)
Wayne County

Weather History for KBJJ - November, 2012

Change the Weather History Date:

Thursday, November 15, 2012

  Actual Average Record
Temperature  
Mean Temperature 35 °F -  
Max Temperature 46 °F 47 °F 68 °F (2005)
Min Temperature 24 °F 31 °F 21 °F (2014)
Degree Days  
Heating Degree Days 30    
Moisture  
Dew Point 26 °F    
Average Humidity 77    
Maximum Humidity 92    
Minimum Humidity 47    
Precipitation  
Precipitation 0.07 in - - ()
Sea Level Pressure  
Sea Level Pressure 30.38 in    
Wind  
Wind Speed 3 mph (North)    
Max Wind Speed 7 mph    
Max Gust Speed -    
Visibility 8 miles    
Events      
Averages and records for this station are not official NWS values.
T = Trace of Precipitation, MM = Missing Value Source: NWS Daily Summary

Daily Weather History Graph

Daily Weather History Graph

Search for Another Location

Airport or City:

Trip Planner

Search our weather history database for the weather conditions in past years. The results will help you decide how hot, cold, wet, or windy it might be!

Date:

Astronomy

Nov. 15, 2012 Rise Set
Actual Time 7:15 AM EST 5:08 PM EST
Civil Twilight 6:45 AM EST 5:38 PM EST
Nautical Twilight 6:12 AM EST 6:11 PM EST
Astronomical Twilight 5:40 AM EST 6:43 PM EST
Moon 9:10 AM EST (11/15) 6:58 PM EST (11/15)
Length of Visible Light 10h 52m
Length of Day
9h 53m
Waxing Crescent, 5% of the Moon is Illuminated
Nov 15
Waxing Crescent
Nov 20
First Quarter
Nov 28
Full
Dec 6
Last Quarter
Dec 13
New

Hourly Weather History & Observations

Time (EST) Temp. Windchill Dew Point Humidity Pressure Visibility Wind Dir Wind Speed Gust Speed Precip Events Conditions
12:56 AM 24.1 °F 19.7 °F 21.9 °F 91% 30.43 in 7.0 mi NW 3.5 mph - N/A   Clear
1:56 AM 26.1 °F 20.5 °F 21.9 °F 84% 30.39 in 7.0 mi NNE 4.6 mph - N/A   Clear
2:56 AM 26.1 °F - 23.0 °F 88% 30.39 in 7.0 mi Calm Calm - N/A   Clear
3:56 AM 26.1 °F 21.9 °F 21.9 °F 84% 30.39 in 8.0 mi NNE 3.5 mph - N/A   Clear
4:56 AM 27.0 °F 21.6 °F 23.0 °F 85% 30.38 in 10.0 mi NNE 4.6 mph - N/A   Clear
5:56 AM 27.0 °F - 21.9 °F 81% 30.38 in 9.0 mi Calm Calm - N/A   Clear
6:56 AM 24.1 °F 19.7 °F 21.0 °F 88% 30.40 in 7.0 mi NNW 3.5 mph - N/A   Clear
7:56 AM 24.1 °F - 21.9 °F 91% 30.41 in 5.0 mi Calm Calm - N/A   Clear
8:56 AM 30.0 °F - 26.1 °F 85% 30.41 in 7.0 mi Calm Calm - N/A   Clear
9:56 AM 34.0 °F - 27.0 °F 75% 30.40 in 8.0 mi Calm Calm - N/A   Clear
10:56 AM 39.0 °F 35.7 °F 28.0 °F 65% 30.38 in 10.0 mi NNW 4.6 mph - 0.07 in   Clear
11:56 AM 42.1 °F 39.2 °F 27.0 °F 55% 30.38 in 10.0 mi Variable 4.6 mph - N/A   Clear
12:56 PM 44.1 °F 40.1 °F 28.0 °F 53% 30.36 in 10.0 mi NE 6.9 mph - N/A   Clear
1:56 PM 46.0 °F 43.1 °F 28.0 °F 50% 30.34 in 10.0 mi North 5.8 mph - N/A   Clear
2:56 PM 46.0 °F - 27.0 °F 47% 30.34 in 10.0 mi Calm Calm - N/A   Clear
3:56 PM 44.1 °F 41.5 °F 28.0 °F 53% 30.34 in 10.0 mi NNW 4.6 mph - N/A   Clear
4:56 PM 39.0 °F 35.7 °F 30.9 °F 73% 30.34 in 10.0 mi NNW 4.6 mph - N/A   Clear
5:56 PM 36.0 °F 32.1 °F 28.9 °F 76% 30.34 in 10.0 mi NNW 4.6 mph - N/A   Clear
6:56 PM 34.0 °F 29.8 °F 28.9 °F 82% 30.36 in 10.0 mi North 4.6 mph - N/A   Clear
7:56 PM 33.1 °F 26.9 °F 28.9 °F 85% 30.37 in 9.0 mi North 6.9 mph - N/A   Clear
8:56 PM 33.1 °F 27.7 °F 28.9 °F 85% 30.37 in 9.0 mi North 5.8 mph - N/A   Clear
9:56 PM 32.0 °F - 30.0 °F 92% 30.38 in 9.0 mi Calm Calm - N/A   Clear
10:56 PM 30.0 °F - 28.0 °F 92% 30.38 in 7.0 mi Calm Calm - N/A   Clear
11:56 PM 28.9 °F 25.2 °F 27.0 °F 92% 30.38 in 6.0 mi NNW 3.5 mph - N/A   Clear